Regional Weather Roundup
Issued by NWS Cleveland, OH

Home | Current Version | Previous Version | Graphics & Text | Print | Product List | Glossary On
Versions: 1 2 3 4 5 6 7 8 9 10 11 12 13 14 15 16 17 18 19 20 21 22 23 24 25 26 27 28 29 30 31 32 33 34 35 36 37 38 39 40 41 42 43 44 45 46 47 48 49 50
000
ASUS41 KCLE 081102
RWRCLE
OHIO REGIONAL WEATHER ROUNDUP
NATIONAL WEATHER SERVICE CLEVELAND, OH
600 AM EST MON FEB 08 2016

NOTE: "FAIR" INDICATES FEW OR NO CLOUDS BELOW 12,000 FEET WITH NO
SIGNIFICANT WEATHER AND/OR OBSTRUCTIONS TO VISIBILITY.

OHZ001>008-015>018-024>027-034-035-043-044-081200-
   NORTHWEST OHIO

CITY           SKY/WX    TMP DP  RH WIND       PRES   REMARKS
DEFIANCE       CLOUDY    33  29  85 CALM      29.64S
FINDLAY        CLOUDY    37  31  78 SW3       29.63F
TOLEDO EXPRESS CLOUDY    33  28  81 SW3       29.63S
TOLEDO EXEC    MOCLDY    35  31  85 SW6       29.64S
LIMA           CLOUDY    36  32  85 SW6       29.63F
$$

OHZ009>014-019>023-028>033-038-089-081200-
   NORTHEAST OHIO

CITY           SKY/WX    TMP DP  RH WIND       PRES   REMARKS
CLE-HOPKINS    LGT RAIN  39  34  82 S7        29.67F
CLE-LAKEFRONT  CLOUDY    42  28  57 SE5       29.65S
CUY CO. ARPT   NOT AVBL
LORAIN-ELYRIA  LGT RAIN  37  34  89 SW5       29.65S
ASHTABULA      CLOUDY    37  25  61 S5        29.67S
AKRON-CANTON   CLOUDY    37  23  56 S8        29.65S
WOOSTER        LGT RAIN  37  31  78 CALM      29.65S
MANSFIELD      CLOUDY    36  35  96 S7        29.63F
YOUNGSTOWN     CLOUDY    37  24  59 SE8       29.66F
$$

OHZ042-051>053-060>062-070>072-077>081-081200-
  SOUTHWEST OHIO

CITY           SKY/WX    TMP DP  RH WIND       PRES   REMARKS
CINC-COVINGTON CLOUDY    37  34  89 S6        29.68S
CINC-LUNKEN    CLOUDY    36  35  96 CALM      29.70F
HAMILTON       CLOUDY    36  32  85 CALM      29.69S
DAYTON         CLOUDY    36  34  92 SE3       29.66S
WRIGHT-PAT AFB NOT AVBL
DAYTON GENERAL CLOUDY    37  33  85 CALM      29.66S
WILMINGTON     LGT RAIN  35  33  92 W8        29.66S FOG     WCI  29
$$

OHZ036-037-039>041-045>050-054>059-063>069-073>076-082>088-081200-
  CENTRAL AND SOUTHEAST OHIO

CITY           SKY/WX    TMP DP  RH WIND       PRES   REMARKS
COLUMBUS       LGT RAIN  38  38 100 CALM      29.64F
OSU AIRPORT    CLOUDY    37  35  92 NW6       29.64F
BOLTON FIELD   NOT AVBL
RICKENBACK AFB NOT AVBL
NEWARK         CLOUDY    38  34  85 CALM      29.64F
MARION         MIX PCPN  37  32  82 NW3       29.64F
LANCASTER      CLOUDY    39  33  79 SE3       29.65S
ZANESVILLE     CLOUDY    37  24  59 SE5       29.66F
NEW PHILLY     CLOUDY    34  26  72 SE6       29.67F WCI  29
$$



USA.gov is the U.S. government's official web portal to all federal, state and local government web resources and services.